Regional Weather Roundup
Issued by NWS Little Rock, AR

Home | Current Version | Previous Version | Text Only | Print | Product List | Glossary Off
Versions: 1 2 3 4 5 6 7 8 9 10 11 12 13 14 15 16 17 18 19 20 21 22 23 24 25 26 27 28 29 30 31 32 33 34 35 36 37 38 39 40 41 42 43 44 45 46 47 48 49 50

000
ASUS44 KLZK 261205
RWRLZK

WEATHER ROUNDUP FOR ARKANSAS
NATIONAL WEATHER SERVICE LITTLE ROCK AR
700 AM CDT TUE MAY 26 2015

NOTE: "FAIR" INDICATES FEW OR NO CLOUDS BELOW 12,000 FEET WITH NO
SIGNIFICANT WEATHER AND/OR OBSTRUCTIONS TO VISIBILITY.

ARZ001-003-010-029-261300-
NORTHWEST ARKANSAS

CITY           SKY/WX    TMP DP  RH WIND       PRES   REMARKS
FAYETTEVILLE   CLOUDY    60  58  92 S10       29.95S
6HR MIN TEMP:  59; 6HR MAX TEMP:  62;

FORT SMITH     CLOUDY    63  59  87 S5        29.95R
6HR MIN TEMP:  62; 6HR MAX TEMP:  63;

HARRISON       CLOUDY    60  58  92 CALM      29.95R
6HR MIN TEMP:  59; 6HR MAX TEMP:  62; 6HR PCP: TRACE;

BENTONVILLE    CLOUDY    61  55  82 S8        29.94S
ROGERS         CLOUDY    61  58  90 S9        29.94R
6HR MIN TEMP:  61; 6HR MAX TEMP:  63; 6HR PCP:  0.01;

SILOAM SPGS    CLOUDY    61  54  77 S8        29.95S
6HR MIN TEMP:  61; 6HR MAX TEMP:  63;

HIGHFILL       CLOUDY    61  58  90 S12       29.93R
6HR MIN TEMP:  61; 6HR MAX TEMP:  63; 6HR PCP: TRACE;

SPRINGDALE     CLOUDY    61  57  88 S8        29.97R
$$

ARZ004-005-016-261300-
NORTH CENTRAL ARKANSAS

CITY           SKY/WX    TMP DP  RH WIND       PRES   REMARKS
BATESVILLE     CLOUDY    63  61  94 SW6       29.97R
6HR MIN TEMP:  63; 6HR MAX TEMP:  64; 6HR PCP:  0.02;

FLIPPIN        CLOUDY    63  59  88 S3        29.93S
6HR MIN TEMP:  61; 6HR MAX TEMP:  64;

MTN HOME       CLOUDY    61  60  97 CALM      29.94R
6HR MIN TEMP:  59; 6HR MAX TEMP:  63; 6HR PCP: TRACE;

$$

ARZ040-041-261300-
WEST CENTRAL ARKANSAS

CITY           SKY/WX    TMP DP  RH WIND       PRES   REMARKS
MENA           CLOUDY    64  63  94 SW7       29.97S
MOUNT IDA      CLOUDY    62  60  93 CALM      29.96R
6HR MIN TEMP:  61; 6HR MAX TEMP:  63;

$$

ARZ009-017-025-026-028-261300-
NORTHEAST ARKANSAS

CITY           SKY/WX    TMP DP  RH WIND       PRES   REMARKS
CORNING        PTSUNNY   66  66 100 SW14      29.95R
JONESBORO      CLOUDY    64  63  96 SW10      29.97R
6HR MIN TEMP:  64; 6HR MAX TEMP:  71; 6HR PCP:  0.12;

NEWPORT        CLOUDY    65  63  93 SW12      29.98R
6HR MIN TEMP:  65; 6HR MAX TEMP:  67; 6HR PCP:  0.21;

WALNUT RIDGE   CLOUDY    64  61  88 SW15      29.96R
6HR MIN TEMP:  64; 6HR MAX TEMP:  66; 6HR PCP:  0.14;

BLYTHEVILLE    CLOUDY    71  69  93 S13       29.96R
6HR MIN TEMP:  71; 6HR MAX TEMP:  74; 6HR PCP:  0.04;

$$

ARZ022-023-033-042-044-261300-
CENTRAL ARKANSAS

CITY           SKY/WX    TMP DP  RH WIND       PRES   REMARKS
LITTLE ROCK    PTSUNNY   64  59  83 SW7       30.01R
6HR MIN TEMP:  63; 6HR MAX TEMP:  64; 6HR PCP:  0.01;

N LITTLE ROCK    N/A     62  61  98 SW5       30.01R
6HR MIN TEMP:  62; 6HR MAX TEMP:  63;

JACKSONVILLE   CLOUDY    64  61  88 S5        29.99R
6HR MIN TEMP:  63; 6HR MAX TEMP:  64; 6HR PCP:  0.01;

SEARCY         CLOUDY    63  61  93 S3        30.01R
6HR MIN TEMP:  63; 6HR MAX TEMP:  64; 6HR PCP:  0.02;

HOT SPRINGS    CLOUDY    63  60  90 SW6       29.99R
6HR MIN TEMP:  62; 6HR MAX TEMP:  63; 6HR PCP:  0.03;

RUSSELLVILLE   CLOUDY    63  61  93 SE5       29.97S
6HR MIN TEMP:  62; 6HR MAX TEMP:  63; 6HR PCP: TRACE;

CLINTON        CLOUDY    63  63 100 CALM      29.99S
$$

ARZ036-261300-
EAST ARKANSAS

CITY           SKY/WX    TMP DP  RH WIND       PRES   REMARKS
WEST MEMPHIS   CLOUDY    65  64  97 S18       29.95S
6HR MIN TEMP:  65; 6HR MAX TEMP:  74; 6HR PCP:  0.43;

$$

ARZ050-053-066-070-073-261300-
SOUTHWEST ARKANSAS

CITY           SKY/WX    TMP DP  RH WIND       PRES   REMARKS
ARKADELPHIA    CLOUDY    64  64 100 VRB3      30.01R
6HR MIN TEMP:  63; 6HR MAX TEMP:  63; 6HR PCP:  0.02;

CAMDEN         MOCLDY    63  59  88 CALM      30.01R
TEXARKANA      CLOUDY    63  62  97 CALM      29.99R
6HR MIN TEMP:  62; 6HR MAX TEMP:  63;

EL DORADO      CLOUDY    62  61  96 S6        30.01R
6HR MIN TEMP:  61; 6HR MAX TEMP:  62;

$$

ARZ056-057-069-261300-
SOUTHEAST ARKANSAS

CITY           SKY/WX    TMP DP  RH WIND       PRES   REMARKS
PINE BLUFF     CLOUDY    63  61  93 SW10      30.01R
6HR MIN TEMP:  62; 6HR MAX TEMP:  63; 6HR PCP:  0.03;

STUTTGART      CLOUDY    64  61  88 SW10      30.02R
6HR MIN TEMP:  64; 6HR MAX TEMP:  64; 6HR PCP:  0.01;

MONTICELLO     MOSUNNY   63  62  97 S6        30.02R
6HR MIN TEMP:  62; 6HR MAX TEMP:  63; 6HR PCP:  0.06;


$$




USA.gov is the U.S. government's official web portal to all federal, state and local government web resources and services.